Marion, IN

9:29 PM EDT on July 21, 2017 (GMT -0400)
Marion Municipal

Weather History for KMZZ - February, 2014

Change the Weather History Date:

Thursday, February 27, 2014

  Actual Average (KMIE) Record (KMIE)
Temperature  
Mean Temperature 12 °F -  
Max Temperature 52 °F 41 °F 65 °F (1976)
Min Temperature 5 °F 23 °F -10 °F (1963)
Degree Days  
Heating Degree Days 53    
Moisture  
Dew Point 0 °F    
Average Humidity 57    
Maximum Humidity 76    
Minimum Humidity 45    
Precipitation  
Precipitation 0.00 in - - ()
Sea Level Pressure  
Sea Level Pressure 29.95 in    
Wind  
Wind Speed 19 mph (NW)    
Max Wind Speed 33 mph    
Max Gust Speed 47 mph    
Visibility 8 miles    
Events Snow    
Averages and records for this station are not official NWS values.
T = Trace of Precipitation, MM = Missing Value Source: NWS Daily Summary

Daily Weather History Graph

Daily Weather History Graph

Search for Another Location

Airport or City:

Trip Planner

Search our weather history database for the weather conditions in past years. The results will help you decide how hot, cold, wet, or windy it might be!

Date:

Astronomy

Feb. 27, 2014 Rise Set
Actual Time 7:19 AM EST 6:31 PM EST
Civil Twilight 6:52 AM EST 6:59 PM EST
Nautical Twilight 6:20 AM EST 7:31 PM EST
Astronomical Twilight 5:48 AM EST 8:02 PM EST
Moon 5:51 AM EST (2/27) 4:56 PM EST (2/27)
Length of Visible Light 12h 07m
Length of Day
11h 12m
Waning Crescent, 4% of the Moon is Illuminated
Feb 27
Waning Crescent
Mar 1
New
Mar 8
First Quarter
Mar 16
Full
Mar 23
Last Quarter

Hourly Weather History & Observations

Time (EST) Temp. Windchill Dew Point Humidity Pressure Visibility Wind Dir Wind Speed Gust Speed Precip Events Conditions
12:15 AM 14.9 °F -2.7 °F 3.9 °F 62% 29.76 in 3.0 mi SW 20.7 mph 26.5 mph N/A Snow Light Snow
12:35 AM 15.1 °F -2.9 °F 3.7 °F 61% 29.74 in 7.0 mi SW 21.9 mph 27.6 mph N/A Snow Light Snow
12:55 AM 15.6 °F -2.6 °F 3.6 °F 59% 29.73 in 10.0 mi WSW 23.0 mph 27.6 mph N/A   Mostly Cloudy
1:15 AM 16.3 °F -2.0 °F 3.4 °F 57% 29.72 in 10.0 mi WSW 24.2 mph 33.4 mph N/A   Overcast
1:35 AM 16.7 °F -0.7 °F 3.4 °F 56% 29.71 in 10.0 mi WSW 21.9 mph 32.2 mph N/A   Overcast
1:55 AM 16.7 °F -1.1 °F 3.6 °F 56% 29.70 in 10.0 mi WSW 23.0 mph 27.6 mph N/A   Overcast
2:15 AM 17.2 °F -0.8 °F 4.1 °F 56% 29.69 in 10.0 mi WSW 24.2 mph 32.2 mph N/A   Overcast
2:35 AM 18.1 °F 0.1 °F 4.5 °F 55% 29.69 in 10.0 mi WSW 25.3 mph 31.1 mph N/A   Overcast
2:55 AM 18.5 °F 1.3 °F 5.2 °F 56% 29.68 in 10.0 mi WSW 23.0 mph 32.2 mph N/A   Overcast
3:15 AM 18.9 °F 2.1 °F 6.3 °F 58% 29.67 in 10.0 mi West 21.9 mph 26.5 mph N/A   Overcast
3:35 AM 19.4 °F 0.8 °F 7.0 °F 59% 29.67 in 5.0 mi West 28.8 mph 33.4 mph N/A Snow Light Snow
3:55 AM 19.8 °F 2.6 °F 7.7 °F 60% 29.68 in 10.0 mi West 24.2 mph 32.2 mph N/A   Overcast
4:15 AM 19.8 °F 2.9 °F 8.2 °F 61% 29.68 in 10.0 mi West 23.0 mph 33.4 mph N/A   Overcast
4:35 AM 19.6 °F 2.0 °F 8.4 °F 62% 29.68 in 10.0 mi West 25.3 mph 31.1 mph N/A   Overcast
4:55 AM 19.4 °F 0.2 °F 8.1 °F 61% 29.69 in 10.0 mi WNW 31.1 mph 47.2 mph N/A   Overcast
5:15 AM 19.2 °F 1.5 °F 8.6 °F 63% 29.69 in 3.0 mi West 25.3 mph 34.5 mph N/A Snow Light Snow
5:35 AM 18.7 °F -1.3 °F 6.8 °F 60% 29.70 in 7.0 mi WNW 33.4 mph 42.6 mph N/A   Overcast
5:55 AM 17.6 °F -1.9 °F 5.0 °F 58% 29.72 in 5.0 mi WNW 29.9 mph 35.7 mph N/A   Haze
6:15 AM 16.7 °F -2.2 °F 5.5 °F 62% 29.74 in 5.0 mi WNW 26.5 mph 33.4 mph N/A Snow Light Snow
6:35 AM 15.6 °F -1.3 °F 5.5 °F 64% 29.76 in 10.0 mi WNW 19.6 mph 31.1 mph N/A   Mostly Cloudy
6:55 AM 14.4 °F -4.6 °F 3.9 °F 63% 29.77 in 4.0 mi WNW 24.2 mph 31.1 mph N/A Snow Light Snow
7:15 AM 13.5 °F -5.4 °F 1.8 °F 60% 29.79 in 10.0 mi WNW 23.0 mph 28.8 mph N/A   Clear
7:35 AM 12.6 °F -6.6 °F 2.1 °F 63% 29.81 in 2.5 mi WNW 23.0 mph 29.9 mph N/A Snow Light Snow
7:55 AM 12.2 °F -5.8 °F 1.8 °F 63% 29.82 in 10.0 mi WNW 19.6 mph - N/A   Clear
8:15 AM 12.0 °F -6.5 °F 2.3 °F 65% 29.85 in 1.8 mi NW 20.7 mph 29.9 mph N/A Snow Light Snow
8:35 AM 12.0 °F -4.0 °F 3.9 °F 70% 29.87 in 2.5 mi NNW 15.0 mph - N/A Snow Light Snow
8:55 AM 11.7 °F -7.4 °F 1.0 °F 62% 29.89 in 5.0 mi NW 21.9 mph 28.8 mph N/A   Haze
9:15 AM 12.2 °F -5.8 °F -3.1 °F 50% 29.91 in 5.0 mi NW 19.6 mph 27.6 mph N/A   Haze
9:35 AM 12.6 °F -6.6 °F -2.4 °F 51% 29.92 in 10.0 mi NW 23.0 mph 28.8 mph N/A   Clear
9:55 AM 13.3 °F -3.9 °F -2.0 °F 51% 29.94 in 10.0 mi NW 18.4 mph 27.6 mph N/A   Scattered Clouds
10:15 AM 12.6 °F -7.0 °F -3.5 °F 49% 29.96 in 1.8 mi NW 24.2 mph - N/A Snow Light Snow
10:35 AM 12.6 °F -6.2 °F -0.9 °F 55% 29.97 in 7.0 mi NW 21.9 mph 26.5 mph N/A   Overcast
10:55 AM 12.7 °F -3.6 °F -1.3 °F 54% 29.99 in 4.0 mi NW 16.1 mph 25.3 mph N/A   Haze
11:15 AM 12.4 °F -7.3 °F -0.2 °F 57% 30.00 in 10.0 mi NW 24.2 mph 27.6 mph N/A   Mostly Cloudy
11:35 AM 13.3 °F -5.3 °F -0.2 °F 55% 30.01 in 10.0 mi NW 21.9 mph 27.6 mph N/A   Scattered Clouds
11:55 AM 13.3 °F -4.4 °F -2.7 °F 49% 30.01 in 10.0 mi WNW 19.6 mph 25.3 mph N/A   Mostly Cloudy
12:15 PM 13.3 °F -2.9 °F -3.3 °F 48% 30.02 in 10.0 mi WNW 16.1 mph 26.5 mph N/A   Mostly Cloudy
12:35 PM 14.4 °F -1.0 °F -2.0 °F 48% 30.03 in 10.0 mi WNW 15.0 mph 26.5 mph N/A   Mostly Cloudy
12:55 PM 14.2 °F -2.3 °F -2.4 °F 48% 30.04 in 3.0 mi NW 17.3 mph 21.9 mph N/A Snow Light Snow
1:15 PM 14.0 °F -2.0 °F -2.6 °F 48% 30.04 in 10.0 mi NW 16.1 mph 24.2 mph N/A   Mostly Cloudy
1:35 PM 14.0 °F -1.4 °F -3.1 °F 47% 30.05 in 10.0 mi NW 15.0 mph 23.0 mph N/A   Overcast
1:55 PM 14.2 °F -0.6 °F -2.7 °F 47% 30.05 in 10.0 mi NNW 13.8 mph 20.7 mph N/A   Mostly Cloudy
2:15 PM 14.0 °F -0.2 °F -3.3 °F 46% 30.06 in 10.0 mi NW 12.7 mph 23.0 mph N/A   Mostly Cloudy
2:35 PM 13.8 °F 0.2 °F -3.3 °F 47% 30.06 in 10.0 mi NNW 11.5 mph 18.4 mph N/A   Mostly Cloudy
2:55 PM 13.8 °F 0.2 °F -2.6 °F 48% 30.07 in 3.0 mi NNW 11.5 mph 18.4 mph N/A Snow Light Snow
3:15 PM 13.6 °F -1.3 °F -3.3 °F 47% 30.07 in 10.0 mi NW 13.8 mph 17.3 mph N/A   Scattered Clouds
3:35 PM 14.0 °F 0.5 °F -3.5 °F 46% 30.08 in 10.0 mi NW 11.5 mph 18.4 mph N/A   Scattered Clouds
3:55 PM 13.1 °F -0.7 °F -3.1 °F 49% 30.08 in 10.0 mi NW 11.5 mph 17.3 mph N/A   Scattered Clouds
4:15 PM 13.5 °F 2.2 °F -2.9 °F 48% 30.08 in 3.0 mi NNW 8.1 mph 16.1 mph N/A Snow Light Snow
4:35 PM 13.6 °F 1.6 °F -3.5 °F 47% 30.08 in 7.0 mi NW 9.2 mph 16.1 mph N/A   Scattered Clouds
4:55 PM 13.6 °F 2.5 °F -4.2 °F 45% 30.09 in 10.0 mi NW 8.1 mph - N/A   Clear
5:15 PM 13.6 °F 1.6 °F -3.6 °F 46% 30.09 in 10.0 mi NW 9.2 mph - N/A   Scattered Clouds
5:35 PM 13.5 °F 3.3 °F -3.5 °F 47% 30.10 in 10.0 mi NW 6.9 mph - N/A   Scattered Clouds
5:55 PM 12.7 °F 3.6 °F -3.8 °F 48% 30.10 in 10.0 mi NNW 5.8 mph - N/A   Scattered Clouds
6:10 PM 12.4 °F 2.0 °F -4.0 °F 48% 30.11 in 10.0 mi NNW 6.9 mph - N/A   Clear
6:35 PM 11.7 °F 1.1 °F -4.0 °F 50% 30.12 in 10.0 mi NW 6.9 mph - N/A   Clear
6:55 PM 11.1 °F 3.1 °F -4.0 °F 51% 30.13 in 10.0 mi NNW 4.6 mph - N/A   Clear
7:15 PM 10.8 °F 1.2 °F -3.5 °F 53% 30.14 in 4.0 mi North 5.8 mph - N/A Snow Light Snow
7:35 PM 10.4 °F 4.0 °F -3.1 °F 55% 30.14 in 10.0 mi North 3.5 mph - N/A   Clear
7:55 PM 10.2 °F -0.6 °F -0.9 °F 61% 30.15 in 7.0 mi North 6.9 mph - N/A   Clear
8:15 PM 9.9 °F 0.2 °F -0.0 °F 64% 30.15 in 7.0 mi North 5.8 mph - N/A   Clear
8:35 PM 9.5 °F 1.2 °F -0.2 °F 65% 30.15 in 10.0 mi North 4.6 mph - N/A   Clear
8:55 PM 9.3 °F -1.7 °F -0.0 °F 66% 30.15 in 4.0 mi NNE 6.9 mph - N/A Snow Light Snow
9:15 PM 9.0 °F -3.2 °F -0.0 °F 67% 30.16 in 4.0 mi North 8.1 mph - N/A Snow Light Snow
9:35 PM 8.6 °F -1.3 °F -0.0 °F 68% 30.16 in 3.0 mi NNE 5.8 mph - N/A Snow Light Snow
9:55 PM 8.4 °F -0.1 °F -0.6 °F 67% 30.16 in 7.0 mi NNE 4.6 mph - N/A   Clear
10:15 PM 8.2 °F -0.3 °F -1.3 °F 65% 30.17 in 2.5 mi NE 4.6 mph - N/A   Haze
10:35 PM 7.7 °F -2.4 °F -1.1 °F 67% 30.17 in 4.0 mi NE 5.8 mph - N/A Snow Light Snow
10:50 PM 7.3 °F -2.8 °F -0.6 °F 70% 30.17 in 4.0 mi NE 5.8 mph - N/A Snow Light Snow
11:15 PM 6.1 °F -2.8 °F -0.9 °F 73% 30.18 in 4.0 mi ENE 4.6 mph - N/A Snow Light Snow
11:35 PM 5.9 °F -3.0 °F -0.6 °F 75% 30.18 in 10.0 mi NE 4.6 mph - N/A   Clear
11:55 PM 5.7 °F -3.2 °F -0.4 °F 76% 30.18 in 10.0 mi NE 4.6 mph - N/A   Clear